TimeCDT,TemperatureF,Dew PointF,Humidity,Sea Level PressureIn,VisibilityMPH,Wind Direction,Wind SpeedMPH,Gust SpeedMPH,PrecipitationIn,Events,Conditions,WindDirDegrees,DateUTC
12:13 AM,71.6,69.8,94,29.77,10.0,ESE,4.6,-,N/A,,Clear,120,2013-06-25 05:13:00
12:33 AM,71.6,69.8,94,29.77,10.0,ESE,4.6,-,N/A,,Clear,120,2013-06-25 05:33:00
12:53 AM,69.8,69.8,100,29.76,10.0,ESE,5.8,-,N/A,,Clear,120,2013-06-25 05:53:00
1:13 AM,69.8,69.8,100,29.78,10.0,SE,4.6,-,N/A,,Clear,140,2013-06-25 06:13:00
1:33 AM,69.8,68.0,94,29.78,10.0,SE,5.8,-,N/A,,Clear,140,2013-06-25 06:33:00
1:53 AM,69.8,68.0,94,29.78,10.0,SE,4.6,-,N/A,,Clear,140,2013-06-25 06:53:00
2:13 AM,69.8,68.0,94,29.78,10.0,SSE,5.8,-,N/A,,Clear,150,2013-06-25 07:13:00
2:33 AM,69.8,68.0,94,29.78,10.0,SSE,6.9,-,N/A,,Clear,150,2013-06-25 07:33:00
2:53 AM,69.8,68.0,94,29.77,10.0,SE,6.9,-,N/A,,Clear,140,2013-06-25 07:53:00
3:13 AM,69.8,66.2,88,29.77,10.0,SSE,9.2,-,N/A,,Clear,150,2013-06-25 08:13:00
3:33 AM,69.8,66.2,88,29.76,10.0,SE,9.2,-,N/A,,Clear,140,2013-06-25 08:33:00
3:53 AM,69.8,66.2,88,29.75,10.0,SE,9.2,-,N/A,,Clear,140,2013-06-25 08:53:00
4:13 AM,69.8,66.2,88,29.75,10.0,SE,8.1,-,N/A,,Clear,130,2013-06-25 09:13:00
4:33 AM,68.0,66.2,94,29.75,10.0,SE,6.9,-,N/A,,Clear,140,2013-06-25 09:33:00
4:53 AM,68.0,66.2,94,29.75,10.0,SE,9.2,-,N/A,,Clear,130,2013-06-25 09:53:00
5:13 AM,68.0,66.2,94,29.74,10.0,SE,9.2,-,N/A,,Clear,140,2013-06-25 10:13:00
5:33 AM,68.0,66.2,94,29.74,10.0,SE,8.1,-,N/A,,Clear,130,2013-06-25 10:33:00
5:53 AM,66.2,66.2,100,29.75,10.0,ESE,5.8,-,N/A,,Clear,120,2013-06-25 10:53:00
6:13 AM,66.2,66.2,100,29.74,10.0,SE,5.8,-,N/A,,Clear,130,2013-06-25 11:13:00
6:33 AM,68.0,66.2,94,29.75,10.0,SE,5.8,-,N/A,,Clear,130,2013-06-25 11:33:00
6:53 AM,69.8,66.2,88,29.75,7.0,SE,8.1,-,N/A,,Clear,130,2013-06-25 11:53:00
7:13 AM,69.8,66.2,88,29.75,10.0,SE,9.2,-,N/A,,Clear,130,2013-06-25 12:13:00
7:33 AM,69.8,66.2,88,29.74,5.0,SSE,12.7,18.4,N/A,,Clear,150,2013-06-25 12:33:00
7:53 AM,69.8,66.2,88,29.74,10.0,SE,11.5,18.4,N/A,,Clear,140,2013-06-25 12:53:00
8:13 AM,71.6,66.2,83,29.73,10.0,SE,15.0,-,N/A,,Clear,140,2013-06-25 13:13:00
8:33 AM,71.6,66.2,83,29.75,10.0,SSE,8.1,-,N/A,,Clear,150,2013-06-25 13:33:00
8:53 AM,71.6,66.2,83,29.75,10.0,SSE,10.4,-,N/A,,Clear,150,2013-06-25 13:53:00
9:13 AM,73.4,66.2,78,29.75,10.0,SSE,12.7,-,N/A,,Scattered Clouds,160,2013-06-25 14:13:00
9:33 AM,73.4,66.2,78,29.75,10.0,South,12.7,-,N/A,,Overcast,170,2013-06-25 14:33:00
9:53 AM,73.4,68.0,83,29.74,10.0,SSE,9.2,-,N/A,,Mostly Cloudy,160,2013-06-25 14:53:00
10:14 AM,75.2,68.0,78,29.74,10.0,SE,9.2,-,N/A,,Scattered Clouds,140,2013-06-25 15:14:00
10:33 AM,77.0,69.8,78,29.73,10.0,SE,13.8,-,N/A,,Scattered Clouds,140,2013-06-25 15:33:00
10:53 AM,75.2,68.0,78,29.74,10.0,SSE,13.8,-,N/A,,Mostly Cloudy,150,2013-06-25 15:53:00
11:14 AM,77.0,69.8,78,29.74,10.0,SSE,13.8,17.3,N/A,,Overcast,160,2013-06-25 16:14:00
11:33 AM,77.0,69.8,78,29.74,10.0,South,13.8,-,N/A,,Mostly Cloudy,170,2013-06-25 16:33:00
11:53 AM,78.8,68.0,69,29.74,10.0,SSE,16.1,-,N/A,,Mostly Cloudy,150,2013-06-25 16:53:00
12:13 PM,78.8,69.8,74,29.74,10.0,SSE,17.3,-,N/A,,Mostly Cloudy,160,2013-06-25 17:13:00
12:33 PM,80.6,69.8,70,29.75,10.0,South,19.6,-,N/A,,Scattered Clouds,170,2013-06-25 17:33:00
12:53 PM,80.6,69.8,70,29.74,10.0,South,15.0,-,N/A,,Scattered Clouds,170,2013-06-25 17:53:00
1:13 PM,80.6,69.8,70,29.73,10.0,SSE,13.8,21.9,N/A,,Scattered Clouds,160,2013-06-25 18:13:00
1:33 PM,82.4,69.8,66,29.73,10.0,SSE,16.1,21.9,N/A,,Scattered Clouds,150,2013-06-25 18:33:00
1:53 PM,82.4,69.8,66,29.72,10.0,SE,13.8,-,N/A,,Scattered Clouds,140,2013-06-25 18:53:00
2:13 PM,82.4,69.8,66,29.71,10.0,SE,13.8,-,N/A,,Scattered Clouds,140,2013-06-25 19:13:00
2:33 PM,84.2,69.8,62,29.71,10.0,SSE,13.8,17.3,N/A,,Clear,160,2013-06-25 19:33:00
2:53 PM,84.2,71.6,66,29.70,10.0,SSE,10.4,-,N/A,,Clear,150,2013-06-25 19:53:00
3:13 PM,84.2,69.8,62,29.70,10.0,SSE,12.7,19.6,N/A,,Clear,150,2013-06-25 20:13:00
3:33 PM,84.2,71.6,66,29.70,10.0,SSE,11.5,17.3,N/A,,Scattered Clouds,160,2013-06-25 20:33:00
3:53 PM,86.0,69.8,58,29.70,10.0,South,8.1,16.1,N/A,,Clear,170,2013-06-25 20:53:00
4:13 PM,87.8,69.8,55,29.69,10.0,South,11.5,-,N/A,,Scattered Clouds,180,2013-06-25 21:13:00
4:33 PM,86.0,71.6,62,29.69,10.0,SE,10.4,-,N/A,,Scattered Clouds,140,2013-06-25 21:33:00
4:53 PM,87.8,69.8,55,29.68,10.0,SE,10.4,17.3,N/A,,Scattered Clouds,130,2013-06-25 21:53:00
5:13 PM,87.8,69.8,55,29.68,10.0,SE,11.5,-,N/A,,Scattered Clouds,130,2013-06-25 22:13:00
5:33 PM,86.0,71.6,62,29.68,10.0,SE,10.4,-,N/A,,Scattered Clouds,130,2013-06-25 22:33:00
5:53 PM,87.8,69.8,55,29.67,10.0,SE,11.5,18.4,N/A,,Scattered Clouds,140,2013-06-25 22:53:00
6:13 PM,86.0,69.8,58,29.66,10.0,SE,15.0,-,N/A,,Clear,130,2013-06-25 23:13:00
6:33 PM,86.0,69.8,58,29.66,10.0,SE,13.8,20.7,N/A,,Scattered Clouds,130,2013-06-25 23:33:00
6:53 PM,86.0,69.8,58,29.66,10.0,SE,15.0,-,N/A,,Clear,140,2013-06-25 23:53:00
7:13 PM,84.2,69.8,62,29.65,10.0,SSE,16.1,-,N/A,,Clear,150,2013-06-26 00:13:00
7:33 PM,82.4,69.8,66,29.65,10.0,SE,11.5,-,N/A,,Clear,140,2013-06-26 00:33:00
7:53 PM,82.4,69.8,66,29.65,10.0,SE,12.7,20.7,N/A,,Clear,140,2013-06-26 00:53:00
8:13 PM,82.4,69.8,66,29.63,10.0,SSE,15.0,-,N/A,Thunderstorm,Clear,150,2013-06-26 01:13:00
8:33 PM,80.6,69.8,70,29.64,10.0,SSE,12.7,19.6,N/A,Thunderstorm,Clear,150,2013-06-26 01:33:00
8:53 PM,80.6,69.8,70,29.64,10.0,SE,12.7,-,N/A,Thunderstorm,Clear,140,2013-06-26 01:53:00
9:13 PM,80.6,69.8,70,29.65,10.0,SE,11.5,-,N/A,Thunderstorm,Clear,140,2013-06-26 02:13:00
9:33 PM,80.6,69.8,70,29.65,10.0,SSE,13.8,-,N/A,Thunderstorm,Clear,150,2013-06-26 02:33:00
9:53 PM,78.8,69.8,74,29.66,10.0,SSE,12.7,18.4,N/A,Thunderstorm,Clear,150,2013-06-26 02:53:00
10:13 PM,78.8,71.6,78,29.65,10.0,SE,11.5,-,N/A,Thunderstorm,Clear,140,2013-06-26 03:13:00
10:33 PM,78.8,71.6,78,29.64,10.0,SE,12.7,-,N/A,,Clear,140,2013-06-26 03:33:00
10:53 PM,78.8,71.6,78,29.64,10.0,SE,12.7,-,N/A,Thunderstorm,Clear,140,2013-06-26 03:53:00
11:13 PM,78.8,71.6,78,29.64,10.0,SSE,15.0,20.7,N/A,,Clear,150,2013-06-26 04:13:00
11:33 PM,78.8,71.6,78,29.65,10.0,SE,10.4,18.4,N/A,,Scattered Clouds,140,2013-06-26 04:33:00
11:53 PM,78.8,71.6,78,29.65,10.0,SSE,10.4,-,N/A,,Mostly Cloudy,150,2013-06-26 04:53:00